Regional Weather Roundup
Issued by NWS

Home | Current Version | Previous Version | Graphics & Text | Print | Product List | Glossary On
Versions: 1 2 3 4 5 6 7 8 9 10 11 12 13 14 15 16 17 18 19 20 21 22 23 24 25 26 27 28 29 30 31 32 33 34 35 36 37 38 39 40 41 42 43 44 45 46 47 48 49 50
000
ASUS45 KCYS 271310
RWRWY

WYOMING REGIONAL WEATHER ROUNDUP
NATIONAL WEATHER SERVICE CHEYENNE WY
700 AM MDT WED MAY 27 2015

NOTE:  "FAIR" INDICATES FEW OR NO CLOUDS BELOW 12,000 FEET
WITH NO SIGNIFICANT WEATHER AND/OR OBSTRUCTIONS TO VISIBILITY.

WYZ001-271400-
YELLOWSTONE NATIONAL PARK

CITY           SKY/WX    TMP DP  RH WIND       PRES   REMARKS
LK YELLOWSTONE   N/A     38  36  92 CALM      30.16S
W YELLOWSTONE  NOT AVBL

$$
WYZ002>013-054>058-071-098>099-271400-
NORTHERN WYOMING

CITY           SKY/WX    TMP DP  RH WIND       PRES   REMARKS
JACKSON        CLOUDY    41  41 100 CALM      30.12S
CODY           FAIR      52  45  76 CALM      30.03R
GREYBULL       CLOUDY    55  52  89 N3        30.00R
WORLAND        PTSUNNY   54  52  93 CALM      30.00R
SHERIDAN       FAIR      50  47  89 CALM      29.99R
BUFFALO        LGT RAIN  51  47  86 NW8       30.01R
GILLETTE       FAIR      51  48  89 S8        29.99S
HULETT         CLOUDY    54  50  87 N3        30.01R
NEWCASTLE      PTSUNNY   54  46  76 CALM      30.03S

$$
WYZ014>020-022>026-101>103-271400-
CENTRAL WYOMING

CITY           SKY/WX    TMP DP  RH WIND       PRES   REMARKS
BIG PINEY      FAIR      41  37  86 N7        30.13S
PINEDALE       FAIR      37  37 100 W3        30.14S
DUBOIS         FAIR      43  36  75 N8        30.11R
LANDER         FAIR      45  41  86 CALM      30.04R
RIVERTON       FAIR      52  47  83 CALM      30.05R
CASPER         PTSUNNY   53  47  79 SW5       30.04R
DOUGLAS        PTSUNNY   53  50  89 CALM      30.04R

$$
WYZ021-027>030-104>119-271400-
SOUTHERN WYOMING

CITY           SKY/WX    TMP DP  RH WIND       PRES   REMARKS
EVANSTON       FAIR      43  40  89 CALM      30.15R
KEMMERER       FAIR      41  37  87 N8        30.15S
FORT BRIDGER   SUNNY     45  43  93 W5        30.17S
ROCK SPRINGS   FAIR      44  40  85 SW7       30.14R
DIXON          CLOUDY    48  44  85 S5        30.19S
RAWLINS        CLOUDY    47  43  86 W10       30.14R
SARATOGA       DRIZZLE   45  43  93 MISG      30.16S
LARAMIE        FAIR      48  39  71 SW7       30.13R
CHEYENNE       FAIR      50  42  74 W10       30.09S
TORRINGTON     FAIR      53  51  93 SE7       30.02R
PINE BLUFFS    CLOUDY    46  46 100 CALM      30.08R

$$


USA.gov is the U.S. government's official web portal to all federal, state and local government web resources and services.